Regional Weather Roundup
Issued by NWS

Home | Current Version | Previous Version | Graphics & Text | Print | Product List | Glossary On
Versions: 1 2 3 4 5 6 7 8 9 10 11 12 13 14 15 16 17 18 19 20 21 22 23 24 25 26 27 28 29 30 31 32 33 34 35 36 37 38 39 40 41 42 43 44 45 46 47 48 49 50
391
ASUS43 KLMK 182102
RWRKY
KENTUCKY REGIONAL WEATHER ROUNDUP
NATIONAL WEATHER SERVICE LOUISVILLE KY
400 PM EST THU JAN 18 2018

NOTE "FAIR" INDICATES FEW OR NO CLOUDS BELOW 12,000 FEET
WITH NO SIGNIFICANT WEATHER AND/OR OBSTRUCTIONS TO VISIBILITY.

KYZ001>023-026-027-061>063-070>075-182200-
WESTERN AND SOUTH CENTRAL KENTUCKY

CITY           SKY/WX    TMP DP  RH WIND       PRES   REMARKS
PADUCAH        FAIR      30  13  49 S8G18     30.36F WCI  22
HENDERSON      FAIR      31  17  56 S12       30.34F WCI  22
OWENSBORO      FAIR      32  18  56 SW15      30.35F WCI  22
HOPKINSVILLE   FAIR      32  13  44 S9        30.37F WCI  24
BOWLING GREEN  FAIR      28  14  55 SW10      30.39F WCI  19
GLASGOW        NOT AVBL
$$

KYZ024-025-028>034-038-045-046-053-182200-
NORTH CENTRAL KENTUCKY

CITY           SKY/WX    TMP DP  RH WIND       PRES   REMARKS
LOUISVILLE/SDF FAIR      33  12  41 SW14      30.32S WCI  23
LOUISVILLE/LOU FAIR      32  14  47 SW14      30.32F WCI  22
FORT KNOX      SUNNY     30  12  47 S13       30.34R WCI  20
$$

KYZ035>037-039>044-047>052-055>060-089>105-182200-
NORTHEAST KENTUCKY

CITY           SKY/WX    TMP DP  RH WIND       PRES   REMARKS
LEXINGTON      FAIR      27  13  55 S16       30.30F WCI  15
COVINGTON      FAIR      31  15  52 SW12      30.22F WCI  22
FRANKFORT      FAIR      29  12  49 SW9       30.30S WCI  20
$$

KYZ054-064>069-076>088-106>120-182200-
SOUTHEAST KENTUCKY

CITY           SKY/WX    TMP DP  RH WIND       PRES   REMARKS
JACKSON        FAIR      30  13  49 VRB5      30.29F WCI  25
LONDON         FAIR      30  12  47 SW9       30.34F WCI  22
SOMERSET       NOT AVBL
MIDDLESBORO    FAIR      32  16  51 S6        30.36F WCI  26
MONTICELLO     FAIR      31  16  54 W18       30.39F WCI  19
$$





USA.gov is the U.S. government's official web portal to all federal, state and local government web resources and services.